Regional Weather Roundup
Issued by NWS New Orleans/Baton Rouge, LA

Home | Current Version | Previous Version | Text Only | Print | Product List | Glossary Off
Versions: 1 2 3 4 5 6 7 8 9 10 11 12 13 14 15 16 17 18 19 20 21 22 23 24 25 26 27 28 29 30 31 32 33 34 35 36 37 38 39 40 41 42 43 44 45 46 47 48 49 50

736
ASUS44 KLIX 302007
RWRLIX
NEW ORLEANS REGIONAL WEATHER ROUNDUP
NATIONAL WEATHER SERVICE NEW ORLEANS LA
300 PM CDT MON MAR 30 2015

NOTE: "FAIR" INDICATES FEW OR NO CLOUDS BELOW 12,000 FEET WITH NO
      SIGNIFICANT WEATHER AND/OR OBSTRUCTIONS TO VISIBILITY.
      SKY/WX - SKY CONDITION AND SIGNIFICANT WEATHER.
      TMP - AIR TEMPERATURE.     DP    - DEWPOINT TEMPERATURE.
      RH  - RELATIVE HUMIDITY.   PRES  - PRESSURE.
      HI  - HEAT INDEX.          WCI   - WIND CHILL INDEX.

*  THESE STATIONS ARE NOT NWS OR FAA STATIONS AND ARE NOT UNDER
   NWS QUALITY CONTROL.

LAZ038-040-048-061>063-065>067-069-302100-
SOUTHEAST LOUISIANA

CITY           SKY/WX    TMP DP  RH WIND       PRES   REMARKS
N.O. AUDUBON     N/A    N/A N/A N/A MISG        N/A
N.O. INTL ARPT PTSUNNY   81  59  47 W8        30.17F
N.O. LAKEFRONT   N/A     78  64  61 NE6       30.18F
SLIDELL          N/A     80  59  48 SW8       30.16F
BATON ROUGE    PTSUNNY   83  58  42 SW12      30.16F
BOOTHVILLE       N/A     77  62  59 SW14      30.20F
BELLE CHASSE     N/A     80  59  48 W8        30.17F
BOGALUSA*        N/A     84  53  34 W12       30.17F
GALLIANO*        N/A     81  62  53 MISG      30.19F
NEW ROADS*       N/A     80  59  48 W13       30.16F
GONZALES*        N/A     80  62  52 SW9       30.16F
HAMMOND*         N/A     84  52  32 W8G16     30.17F
HOUMA*         PTSUNNY   79  63  57 W16       30.19F
PORT FOURCHON* CLEAR     77  63  61 W8        30.24F

$$

MSZ070-080>082-302100-
SOUTHERN MISSISSIPPI

CITY           SKY/WX    TMP DP  RH WIND       PRES   REMARKS
MCCOMB           N/A     81  55  40 W13G18    30.16F
GULFPORT         N/A     79  62  56 S10G24    30.15F
BILOXI           N/A     76  67  72 SW14G21   30.16F
PASCAGOULA       N/A     78  64  61 S10G20    30.17F

$$

COASTAL OBSERVATIONS
LAKE AND NEARSHORE STATIONS

STATION/POSITION TIME  TEMP    WIND        PRES    WAVE
                       AIR SEA DIR/SP/G            HT/PER
                 (UTC) (F)     (DEG/KT/KT) (MB)    (FT/S)
PASCAGOULA       1900   72     210/ 12/ 14 1022.2
WAVELAND YACHT   1900   77 67  230/  6/ 16 1022.1
GRAND ISLE       1900   74 68  220/  6/  8 1023.4
SOUTHWEST PASS   1900   75 55  240/  4/  5 1024.0
NEW CANAL        1900   72      30/  5/  6 1023.1
SHELL BEACH      1900   77 70  220/ 12/ 17 1022.6

OFFSHORE STATIONS

STATION/POSITION TIME  TEMP    WIND        PRES    WAVE
                       AIR SEA DIR/SP/G            HT/PER
                 (UTC) (F)     (DEG/KT/KT) (MB)    (FT/S)
64 S DAUPHIN ISL 1950   71 72  190/ 12/ 14 1023.2    2/ 5

$$




USA.gov is the U.S. government's official web portal to all federal, state and local government web resources and services.